This demonstration page uses our WeatherBlox Daily Observations layout. Learn more.

Left ArrowRight Arrow

Hourly Observations for December 8, 2015

Temp ( °F °C ) Dew Point ( °F °C ) Humidity (%) Winds ( mph kmh ) Pressure ( in mb ) Visibility ( mi km ) Precip ( " mm )
12:34 am 00:34 Cloudy with Mist and Fog 52 11 48 9 88 88 Calm 30.24 1024 3 5 0.00 0.00
12:45 am 00:45 Cloudy with Mist and Fog 53 11.7 49 9.4 86 86 Calm 30.24 1024 3 5 0.00 0.00
12:53 am 00:53 Cloudy with Mist and Fog 53 11.7 49 9.4 86 86 Calm 30.24 1024 3 5 0.00 0.00
1:11 am 01:11 Cloudy with Mist and Fog 53 11.7 49 9.4 86 86 Calm 30.24 1024 3 5 0.00 0.00
1:29 am 01:29 Cloudy with Mist and Fog 52 11.1 49 9.4 89 89 Calm 30.24 1024 3 5 0.00 0.00
1:53 am 01:53 Cloudy with Mist and Fog 52 11.1 49 9.4 89 89 Calm 30.24 1024 3 5 0.00 0.00
2:03 am 02:03 Cloudy with Mist and Fog 54 12 48 9 82 82 Calm 30.24 1024 4 6 0.00 0.00
2:53 am 02:53 Cloudy with Mist and Fog 52 11.1 49 9.4 89 89 Calm 30.24 1024 4 6 0.00 0.00
3:53 am 03:53 Cloudy with Mist and Fog 53 11.7 49 9.4 86 86 Calm 30.22 1023 4 6 0.00 0.00
4:24 am 04:24 Cloudy with Mist and Fog 52 11 48 9 88 88 Calm 30.21 1023 3 5 0.00 0.00
4:49 am 04:49 Cloudy with Mist and Fog 52 11 48 9 88 88 Calm 30.21 1023 3 5 0.00 0.00
4:53 am 04:53 Cloudy with Mist and Fog 53 11.7 49 9.4 86 86 Calm 30.21 1023 4 6 0.00 0.00
5:53 am 05:53 Cloudy with Mist and Fog 52 11.1 49 9.4 89 89 Calm 30.22 1023 3 5 0.00 0.00
6:17 am 06:17 Mostly Cloudy with Mist and Fog 51 10.6 48 8.9 89 89 Calm 30.21 1023 2 3 0.00 0.00
6:48 am 06:48 Mostly Cloudy with Mist and Fog 50 10 46 8 88 88 Calm 30.24 1024 2 3 0.00 0.00
6:53 am 06:53 Mostly Cloudy with Mist and Fog 50 10 47 8.3 89 89 Calm 30.23 1024 1 2 0.00 0.00
6:55 am 06:55 Mostly Cloudy with Mist and Fog 50 10 47 8.3 89 89 Calm 30.24 1024 1 2 0.00 0.00
7:12 am 07:12 Mostly Cloudy with Mist and Fog 50 10 46 8 88 88 Calm 30.21 1023 2 3 0.00 0.00
7:33 am 07:33 Mostly Cloudy with Fog 50 10 46 8 88 88 Calm 30.24 1024 1 1 0.00 0.00
7:53 am 07:53 Cloudy with Fog 50 10 47 8.3 89 89 W 3 6 30.23 1024 0 0 0.00 0.00
8:53 am 08:53 Cloudy with Fog 51 10.6 49 9.4 92 92 Calm 30.24 1024 0 0 0.00 0.00
8:55 am 08:55 Mostly Cloudy with Fog 51 10.6 49 9.4 92 92 Calm 30.24 1024 1 1 0.00 0.00
9:06 am 09:06 Cloudy with Mist and Fog 52 11.1 50 10 93 93 Calm 30.24 1024 2 2 0.00 0.00
9:21 am 09:21 Cloudy with Mist and Fog 53 11.7 51 10.6 93 93 Calm 30.24 1024 1 1 0.00 0.00
9:36 am 09:36 Partly Cloudy with Mist and Fog 53 11.7 51 10.6 93 93 Calm 30.24 1024 1 2 0.00 0.00
9:44 am 09:44 Partly Cloudy with Mist and Fog 54 12 52 11 94 94 Calm 30.24 1024 2 3 0.00 0.00
9:53 am 09:53 Partly Cloudy with Mist and Fog 54 12.2 52 11.1 93 93 Calm 30.23 1024 2 3 0.00 0.00
10:37 am 10:37 Cloudy with Mist and Fog 55 12.8 52 11.1 90 90 Calm 30.24 1024 2 3 0.00 0.00
10:53 am 10:53 Cloudy with Mist and Fog 54 12.2 52 11.1 93 93 Calm 30.23 1024 2 3 0.00 0.00
11:53 am 11:53 Mostly Cloudy with Mist and Fog 57 13.9 54 12.2 90 90 Calm 30.22 1023 6 10 0.00 0.00
12:13 pm 12:13 Partly Cloudy with Mist and Fog 58 14.4 55 12.8 90 90 Calm 30.21 1023 6 10 0.00 0.00
12:23 pm 12:23 Mostly Cloudy with Mist and Fog 58 14.4 54 12.2 87 87 Calm 30.21 1023 6 10 0.00 0.00
12:33 pm 12:33 Partly Cloudy with Mist and Fog 58 14.4 54 12.2 87 87 Calm 30.21 1023 6 10 0.00 0.00
12:53 pm 12:53 Partly Cloudy 59 15 54 12.2 83 83 E 5 7 30.19 1022 8 13 0.00 0.00
1:13 pm 13:13 Mostly Cloudy 59 15 54 12.2 83 83 ESE 5 7 30.18 1022 10 16 0.00 0.00
1:44 pm 13:44 Cloudy 59 15 54 12 82 82 S 6 9 30.18 1022 10 16 0.00 0.00
1:53 pm 13:53 Cloudy 59 15 53 11.7 81 81 S 7 11 30.18 1022 10 16 0.00 0.00
2:53 pm 14:53 Cloudy 57 13.9 52 11.1 83 83 SSE 8 13 30.18 1022 10 16 0.00 0.00
3:18 pm 15:18 Cloudy 57 14 52 11 82 82 SSE 10 17 30.18 1022 10 16 0.00 0.00
3:53 pm 15:53 Cloudy 55 12.8 51 10.6 87 87 SSE 10 17 30.18 1022 7 11 0.00 0.00
4:06 pm 16:06 Cloudy 55 12.8 51 10.6 87 87 SSE 8 13 30.18 1022 7 11 0.00 0.00
4:25 pm 16:25 Cloudy 55 12.8 51 10.6 87 87 SSE 8 13 30.18 1022 7 11 0.00 0.00
4:40 pm 16:40 Cloudy 55 13 52 11 88 88 SSE 7 11 30.18 1022 7 11 0.00 0.00
4:53 pm 16:53 Cloudy with Mist and Fog 55 12.8 51 10.6 87 87 SSE 8 13 30.18 1022 2 3 0.00 0.00
5:00 pm 17:00 Cloudy 55 13 52 11 88 88 SSE 6 9 30.18 1022 8 13 0.00 0.00
5:08 pm 17:08 Cloudy 55 13 52 11 88 88 SE 7 11 30.18 1022 8 13 0.00 0.00
5:45 pm 17:45 Cloudy with Mist and Fog 54 12.2 51 10.6 90 90 SE 3 6 30.18 1022 3 5 0.00 0.00
5:53 pm 17:53 Cloudy with Mist and Fog 54 12.2 51 10.6 90 90 SE 3 6 30.17 1022 3 5 0.00 0.00
6:53 pm 18:53 Cloudy 54 12.2 50 10 87 87 SE 5 7 30.16 1021 9 14 0.00 0.00
7:53 pm 19:53 Cloudy 55 12.8 50 10 83 83 Calm 30.16 1021 9 14 0.00 0.00
8:53 pm 20:53 Cloudy 54 12.2 50 10 87 87 SE 5 7 30.16 1021 10 16 0.00 0.00
9:20 pm 21:20 Cloudy 55 13 50 10 82 82 SSE 6 9 30.15 1021 10 16 0.00 0.00
9:53 pm 21:53 Cloudy 54 12.2 50 10 87 87 SE 6 9 30.15 1021 9 14 0.00 0.00
10:45 pm 22:45 Cloudy 54 12.2 50 10 87 87 S 3 6 30.15 1021 7 11 0.00 0.00
10:53 pm 22:53 Cloudy 54 12.2 50 10 87 87 S 3 6 30.15 1021 7 11 0.00 0.00
11:53 pm 23:53 Cloudy with Mist and Fog 54 12.2 50 10 87 87 S 5 7 30.16 1021 3 5 0.00 0.00

Powered by AerisWeather